TimeCDT,TemperatureF,Dew PointF,Humidity,Sea Level PressureIn,VisibilityMPH,Wind Direction,Wind SpeedMPH,Gust SpeedMPH,PrecipitationIn,Events,Conditions,WindDirDegrees,DateUTC
12:53 AM,73.9,66.9,79,29.83,10.0,NE,9.2,-,N/A,,Clear,40,2013-07-18 05:53:00
1:53 AM,72.0,66.9,84,29.80,10.0,Calm,Calm,-,N/A,,Clear,0,2013-07-18 06:53:00
2:53 AM,71.1,68.0,90,29.75,10.0,SE,3.5,-,N/A,,Clear,140,2013-07-18 07:53:00
3:53 AM,71.1,68.0,90,29.78,10.0,NNW,6.9,-,N/A,,Clear,330,2013-07-18 08:53:00
4:53 AM,71.1,68.0,90,29.79,10.0,NW,4.6,-,N/A,,Clear,320,2013-07-18 09:53:00
5:53 AM,71.1,68.0,90,29.79,10.0,ENE,4.6,-,N/A,,Clear,70,2013-07-18 10:53:00
6:53 AM,72.0,68.0,87,29.81,10.0,North,3.5,-,N/A,,Clear,350,2013-07-18 11:53:00
7:53 AM,75.9,70.0,82,29.82,10.0,ENE,6.9,-,N/A,,Clear,70,2013-07-18 12:53:00
8:03 AM,75.2,69.8,83,30.15,10.0,East,6.9,-,N/A,,Partly Cloudy,80,2013-07-18 13:03:00
8:53 AM,78.1,71.1,79,29.81,10.0,East,5.8,-,N/A,,Clear,80,2013-07-18 13:53:00
9:53 AM,82.0,71.1,69,29.82,10.0,Calm,Calm,-,N/A,,Clear,0,2013-07-18 14:53:00
10:53 AM,84.0,73.0,69,29.82,10.0,Variable,3.5,-,N/A,,Clear,0,2013-07-18 15:53:00
11:53 AM,86.0,73.0,65,29.82,10.0,Calm,Calm,-,N/A,,Partly Cloudy,0,2013-07-18 16:53:00
12:53 PM,90.0,71.1,54,29.80,10.0,ESE,5.8,-,N/A,,Partly Cloudy,110,2013-07-18 17:53:00
1:53 PM,90.0,71.1,54,29.76,10.0,Variable,6.9,-,N/A,,Clear,0,2013-07-18 18:53:00
2:53 PM,89.1,71.1,55,29.74,10.0,SE,5.8,-,N/A,,Mostly Cloudy,140,2013-07-18 19:53:00
3:53 PM,90.0,69.1,50,29.72,10.0,Variable,3.5,-,N/A,,Mostly Cloudy,0,2013-07-18 20:53:00
4:53 PM,90.0,69.1,50,29.71,10.0,ESE,5.8,-,N/A,,Partly Cloudy,120,2013-07-18 21:53:00
5:53 PM,88.0,71.1,57,29.70,10.0,SE,4.6,-,N/A,,Scattered Clouds,130,2013-07-18 22:53:00
6:53 PM,86.0,72.0,63,29.71,10.0,SSE,4.6,-,N/A,,Clear,150,2013-07-18 23:53:00
7:53 PM,84.0,71.1,65,29.73,10.0,ESE,4.6,-,N/A,,Clear,110,2013-07-19 00:53:00
8:53 PM,80.1,73.0,79,29.75,10.0,Calm,Calm,-,N/A,,Clear,0,2013-07-19 01:53:00
9:53 PM,78.1,73.0,84,29.77,10.0,WSW,3.5,-,N/A,,Clear,250,2013-07-19 02:53:00
10:53 PM,77.0,72.0,84,29.78,10.0,SSW,3.5,-,N/A,,Clear,200,2013-07-19 03:53:00
11:53 PM,75.9,72.0,87,29.78,10.0,Calm,Calm,-,N/A,,Clear,0,2013-07-19 04:53:00